NOAA 16 DEB

Satellite information

Favourite Embed

Satellite Type and Status

DEBRISIN ORBIT

Key statistics

Satellite NOAA 16 DEB at a glance.

Uptime

8994

Days in orbit

Revolutions

≈ 14.2

Per day

Orbit

SSO

Sun Synchronous Orbit

Inclination

98.8

Latest

Satellite identification and parameters

Extended collection of information and parameters for NOAA 16 DEB.

Object identification

Identified? True

Debris? True

Object name: NOAA 16 DEB

International designator: 2000-055W

Object number (NORAD): 41063

Object ID (CCSDS): 41063

Country: UNITED STATES OF AMERICA (US)

Current information (Y/N): Y

RCS size: SMALL

Orbital parameters

Period: 101.243 minutes

Inclination: 98.7634 deg

SMA: 7195.66 km

Apoapsis: 834.439 km

Periapsis: 800.611 km

RAAN: 204.4958 deg

Eccentricy: 0.0023506

Argument of periapsis: 165.8446 deg

Mean anomaly: 194.3395 deg

Mean motion: 14.22318327 rev/day

Mean motion (dot): 0.00004224 rev/day2

B* drag term: 0.0019136 1/REarth

Two-line elements (TLE)

Creation date: May 7, 2025, 3:14 a.m.

Reference frame: TEME

Reference center: EARTH

Epoch: May 6, 2025, 4:55 a.m. UTC

TLE line 0: 0 NOAA 16 DEB

TLE line 1: 1 41063U 00055W 25126.20529729 .00004224 00000-0 19136-2 0 9990

TLE line 2: 2 41063 98.7634 204.4958 0023506 165.8446 194.3395 14.22318327486965

Live tracking on map

Real-time ground track for satellite NOAA 16 DEB.

In-orbit conjunctions

A list of the most updated potential collisions computed for object NOAA 16 DEB.

Target Orbit TCA Probability of collision Miss distance Type
CZ-6A DEB LEO 2025-03-08 06:32:01 0.0001152065 335.0 (m) DEBRIS
CZ-6A DEB LEO 2024-11-30 06:31:22 0.0002492791 708.0 (m) DEBRIS
SL-16 DEB LEO 2024-11-14 10:10:21 0.0001114466 39.0 (m) DEBRIS
COSMOS 374 DEB MEO 2024-11-11 11:10:43 0.001743153 223.0 (m) DEBRIS
SL-16 R/B LEO 2024-10-14 20:10:48 0.0001426608 713.0 (m) ROCKET BODY

Associated space launch

The NOAA K, L and M POES satellites begin the fifth generation of improved environmental monitoring in support of NOAA missions. The instrument payload has significant improvements and additions/deletions. The instrument changes have effected the spacecraft subsystems and data formats.

NOAA 16 DEB was lifted into orbit during the mission ‘Titan II SLV | NOAA 16’, on board a Titan II SLV space rocket.

The launch took place on Sept. 21, 2000, 10:22 a.m. from Space Launch Complex 4W.

For more information about the launch, click the button.

Launch to space Titan II SLV | NOAA 16
Titan II SLV | NOAA 16

Agency: N/A

Status: Launch Successful

Launch date: Sept. 21, 2000, 10:22 a.m. UTC

Rocket: Titan II SLV

Launch pad: Space Launch Complex 4W

Location: Vandenberg SFB, CA, USA

...

Latest news about this satellite

There are no fresh news available about this satellite. Check back as we update our databases every day.


Newsletter sign-up

Weekly statistics, charts and insights to help you stay on top of the space industry.